Wind_Speed
76 76 76 76 76 75 75 75 75 74 74 75 75 75 76 76 76 76 76 76 76 77 78 79 79 80 81 82 83 84 84 84 84 84 83 82 81 80 80 79 77 75 72 70 67 66 63 60 59 59 57 56 54 53 52 50 48 46 43 40 37 33 30 31 29 26 24 23 23 21 19 17 17 17 16 14 13 13 13 14 14 16 18 20 22
79 78 78 78 78 78 77 77 77 76 77 77 77 78 78 78 78 77 78 78 78 79 80 80 81 82 83 84 85 85 85 85 85 84 83 82 81 80 79 78 76 74 71 69 66 65 62 59 58 58 56 55 53 52 51 49 47 44 41 38 35 31 30 30 28 25 24 23 23 22 19 17 18 18 17 16 14 14 15 15 16 17 19 22 23
80 80 80 80 80 80 79 79 79 79 79 79 80 80 80 80 79 79 80 80 81 81 82 83 84 84 85 86 86 85 85 85 84 84 83 82 81 80 78 77 75 72 70 68 65 63 61 59 58 57 55 54 52 51 50 48 45 43 40 37 34 30 30 30 27 25 24 23 22 22 20 18 18 19 19 17 16 16 16 17 17 18 20 23 25
82 81 81 82 82 82 82 81 81 81 81 81 82 82 82 82 82 82 83 83 84 84 85 85 86 86 87 87 87 86 86 85 84 84 83 81 80 79 77 76 74 71 69 67 64 62 59 58 57 56 55 53 52 50 49 47 44 41 38 35 32 29 30 29 27 25 24 23 22 22 21 19 19 20 20 19 18 18 17 18 18 19 21 23 26
84 83 83 84 84 84 83 83 83 83 83 83 83 84 84 84 85 85 86 86 86 87 87 88 88 88 88 88 88 88 87 86 84 84 82 81 79 78 76 75 73 71 69 66 64 61 59 58 57 56 55 53 51 50 48 45 43 40 37 33 30 29 29 29 27 25 24 23 21 21 21 19 20 21 22 21 20 19 19 19 19 20 21 24 26
86 85 85 85 86 86 85 84 85 85 85 85 85 86 86 87 88 88 89 89 89 89 89 89 89 89 89 89 89 88 87 86 85 83 81 80 78 76 75 74 72 70 68 65 63 60 58 57 56 55 54 53 50 49 47 44 42 39 35 31 29 28 28 29 27 25 24 23 22 21 21 20 20 21 23 23 22 21 20 20 20 20 22 24 26
88 87 87 87 88 88 87 86 86 87 87 87 88 88 89 90 90 91 91 91 91 91 90 89 90 90 90 90 89 88 88 86 84 82 80 78 76 75 74 73 71 69 67 65 62 60 58 57 56 55 54 52 50 48 45 43 41 37 34 30 29 28 28 28 26 24 24 24 22 22 23 21 21 22 24 24 23 22 21 21 21 21 22 24 25
90 90 90 90 90 90 89 89 88 89 89 89 90 91 91 92 92 93 93 92 93 93 91 92 92 92 91 90 89 88 87 86 83 81 79 77 75 74 73 71 70 68 66 63 61 59 58 57 56 54 53 51 49 47 44 42 39 36 32 29 28 28 27 27 25 25 25 24 23 23 24 23 22 23 25 25 24 23 22 22 22 22 22 23 25
92 92 92 92 92 92 91 91 91 91 91 91 92 92 94 94 94 94 94 93 93 92 92 93 93 92 91 90 89 88 86 84 82 81 79 76 74 73 72 70 68 67 64 61 60 58 57 56 55 54 52 49 47 45 43 41 37 34 31 29 29 28 27 26 25 25 25 25 23 24 26 25 24 25 26 27 26 24 23 22 22 22 22 23 24
95 95 95 94 94 94 94 94 94 94 94 93 93 94 94 93 93 94 94 93 91 91 92 93 92 92 90 90 89 87 85 83 81 80 78 76 73 72 71 69 67 65 63 60 59 57 56 55 54 53 51 48 46 44 42 39 36 32 29 28 29 28 27 26 26 26 26 25 24 25 28 26 25 26 27 28 28 26 24 23 23 23 23 23 23
97 97 97 96 96 96 96 96 96 96 96 95 94 92 90 89 90 91 92 92 91 92 93 92 92 91 90 89 89 87 85 82 80 78 77 75 72 70 70 68 65 64 62 59 57 56 55 54 53 52 49 47 44 42 40 37 34 31 28 28 29 28 27 26 26 26 26 26 25 25 29 29 26 26 27 28 28 28 25 23 23 23 23 23 23
98 98 98 97 97 97 97 97 97 97 96 96 95 92 90 86 84 87 91 93 93 93 93 92 91 90 90 89 88 87 84 82 79 77 75 74 72 70 68 67 64 62 61 59 56 55 54 53 52 50 48 45 42 40 38 36 33 29 27 29 30 28 27 27 27 27 27 27 26 26 30 31 29 27 28 29 29 29 27 25 23 23 23 23 23
99 98 98 98 98 97 97 97 97 97 96 96 96 95 92 87 86 90 93 95 94 94 93 93 92 91 90 89 87 86 84 81 78 76 75 73 71 68 66 65 63 61 60 57 55 53 53 52 51 49 46 43 40 38 36 34 31 28 28 29 30 29 28 27 27 27 27 28 28 27 31 34 31 29 29 30 31 30 29 27 25 24 24 24 23
98 98 98 98 98 97 97 97 97 97 96 96 97 97 95 93 93 94 95 95 94 94 93 93 92 91 89 88 87 85 83 80 77 75 74 72 69 67 65 63 62 60 58 56 54 52 51 50 49 47 44 41 38 35 33 32 29 28 28 29 30 29 28 27 27 26 27 29 30 29 33 36 33 31 30 31 33 32 31 30 28 26 25 24 24
98 98 98 98 98 97 97 97 97 97 97 97 98 98 97 97 96 95 95 95 95 94 93 93 92 90 89 87 85 84 82 80 77 75 72 70 68 66 63 62 60 59 57 54 52 51 49 48 47 45 42 38 36 33 31 30 28 27 29 29 29 28 27 27 26 26 27 30 32 31 34 38 36 33 32 32 34 34 33 32 31 29 27 25 25
99 98 98 98 98 98 98 98 98 97 98 98 99 98 98 97 97 96 96 95 95 94 93 92 91 89 88 86 85 83 81 79 77 73 70 68 66 64 63 61 59 57 55 53 51 50 48 46 45 42 39 36 33 31 30 28 27 28 29 28 28 27 26 25 25 26 28 30 32 33 35 39 39 36 34 33 34 35 34 33 32 31 29 27 26
100 99 99 99 99 99 99 99 98 98 99 99 99 99 99 98 98 98 97 96 95 94 92 91 89 88 86 85 84 82 79 77 75 72 69 66 64 63 62 59 57 55 53 51 49 48 45 44 42 39 36 34 31 29 29 28 27 28 28 27 27 26 25 24 25 26 28 30 32 34 37 40 41 38 36 35 34 34 35 35 34 33 31 30 28
101 100 100 100 100 100 100 100 99 100 101 101 100 100 100 99 99 98 97 96 94 93 91 90 88 86 85 83 81 79 77 75 73 71 68 65 63 62 60 57 55 52 50 49 48 46 43 40 39 37 34 32 30 29 28 28 28 28 27 26 26 25 24 24 24 26 28 30 31 34 38 40 42 40 38 36 35 33 34 35 34 34 32 31 30
102 102 102 101 101 101 101 101 101 102 102 102 102 101 101 100 99 97 96 95 94 92 90 88 86 83 81 79 76 74 73 73 71 69 67 64 62 60 57 55 52 50 48 47 45 43 40 37 36 35 32 30 29 28 28 28 28 28 27 26 24 23 23 23 24 26 27 29 31 34 38 41 42 41 39 37 35 33 32 33 33 34 34 33 31
103 103 103 103 103 102 102 102 103 103 103 102 102 101 100 99 98 96 95 94 92 90 88 85 82 80 78 74 72 71 72 71 70 68 66 64 61 57 54 52 50 48 47 45 43 40 37 35 34 33 31 30 29 29 28 28 28 27 27 25 23 22 22 22 23 25 26 28 30 33 37 42 43 42 39 36 34 33 32 31 32 33 35 34 33
104 104 104 103 103 103 103 103 103 103 102 101 100 99 98 97 96 95 94 93 91 88 86 83 78 76 75 72 71 71 71 70 68 66 64 62 58 55 52 50 49 47 44 42 40 37 35 33 32 31 30 30 30 29 29 28 28 28 27 25 23 22 22 21 22 24 25 27 29 32 37 42 43 42 39 35 32 32 32 32 32 32 34 36 35
105 104 103 103 102 102 102 102 102 101 101 100 99 98 96 96 95 94 93 91 89 87 85 82 77 74 74 73 72 71 70 68 67 64 62 60 56 52 50 48 47 44 42 39 37 35 33 32 30 30 30 30 30 29 29 28 28 28 27 25 23 22 21 21 21 23 25 26 28 31 36 42 44 43 41 37 32 31 33 34 34 33 34 36 36
104 103 102 102 101 101 101 101 101 100 99 98 97 96 95 93 92 91 90 89 87 85 84 81 78 76 74 73 69 67 67 66 64 62 61 58 52 48 46 46 45 42 40 37 35 33 31 29 29 29 30 31 31 30 29 28 28 27 27 25 23 22 21 20 21 22 24 26 27 30 36 42 44 43 42 39 35 33 34 36 36 35 35 36 36
102 101 101 100 100 100 100 99 99 99 98 96 95 93 92 91 89 89 88 87 86 84 83 80 77 75 73 71 68 66 65 64 61 58 55 53 49 45 43 42 40 38 36 34 33 31 30 28 28 30 31 31 31 30 29 28 28 27 27 25 22 21 20 19 20 21 23 25 26 29 35 42 45 45 43 41 37 35 36 37 38 37 38 38 37
100 99 99 98 98 97 97 97 97 96 95 94 92 91 89 88 88 87 86 85 84 82 81 78 75 73 72 70 68 67 65 61 57 53 51 51 49 45 41 37 35 34 32 30 31 31 29 28 28 30 31 31 31 31 30 29 28 28 28 26 22 20 19 18 19 21 23 24 25 28 33 41 45 46 46 44 40 37 37 38 38 38 39 40 39
98 97 96 95 95 94 94 94 94 94 93 91 90 88 87 86 86 85 84 83 82 80 78 77 74 72 70 69 67 65 62 57 52 50 49 48 45 42 39 36 34 33 29 26 28 30 28 28 29 30 30 30 30 31 30 29 29 29 28 26 23 20 19 18 19 21 23 24 25 27 31 39 44 47 47 46 44 40 38 38 39 38 37 39 39
95 94 92 92 91 92 92 92 92 91 90 88 87 86 85 84 83 83 82 80 79 77 76 75 72 70 68 67 65 63 59 55 51 49 48 46 44 41 38 36 35 32 28 25 25 28 28 29 31 30 29 29 30 32 32 31 31 30 28 26 24 21 20 19 20 22 23 24 24 26 30 36 42 46 47 47 46 43 40 39 39 37 34 35 37
92 91 90 89 89 89 90 90 90 89 87 86 85 84 83 82 81 80 79 77 76 75 74 73 71 68 66 65 63 60 57 54 50 48 46 45 43 40 37 36 34 31 28 25 23 26 29 30 31 29 28 29 31 34 34 33 33 31 28 27 25 22 21 20 21 23 25 24 24 26 29 35 39 43 46 47 46 44 42 39 39 38 35 33 35
90 89 88 88 88 88 88 88 87 87 85 84 83 82 81 80 78 77 75 74 73 72 71 70 69 66 64 62 60 57 53 50 47 45 43 42 40 37 36 33 32 31 29 25 23 25 29 30 30 29 29 31 34 36 36 35 34 31 27 26 24 21 20 21 23 25 25 24 24 25 28 35 39 41 44 46 46 45 43 40 39 39 37 35 33
88 87 87 86 86 86 86 86 85 84 83 82 80 79 78 77 75 74 72 71 71 69 68 67 66 64 61 59 56 53 49 46 43 42 40 38 36 34 34 33 31 31 30 27 24 25 28 31 31 31 31 33 36 37 36 35 34 32 28 25 23 20 20 22 24 25 24 23 24 25 28 34 40 41 42 44 45 45 45 42 40 39 38 37 33
86 86 85 85 84 84 83 83 82 81 81 79 77 76 75 74 72 71 69 68 67 66 65 64 62 61 58 56 52 48 45 41 39 38 36 35 33 30 32 33 31 31 30 28 27 27 28 30 31 32 34 35 37 38 37 36 35 34 29 24 22 21 21 23 25 25 24 23 24 26 28 32 38 43 43 43 44 44 45 44 42 40 39 38 35
84 84 83 83 82 81 81 80 79 78 77 76 75 73 72 70 69 67 65 64 63 62 61 60 59 57 55 52 48 44 40 37 36 35 34 33 32 29 29 31 30 30 32 30 29 29 30 31 32 33 35 37 39 40 39 38 37 35 32 26 24 24 25 26 27 27 26 24 24 26 28 30 35 41 45 45 44 43 43 44 43 42 41 40 37
82 81 81 80 79 78 77 77 76 75 74 73 72 70 68 66 65 63 62 61 59 58 57 56 55 53 51 48 44 40 36 33 32 31 32 33 32 29 28 32 32 29 32 33 31 30 32 33 32 33 36 38 40 41 41 41 40 39 36 30 26 27 28 29 30 28 27 25 25 26 28 31 32 37 44 46 46 44 42 42 42 41 41 40 38
78 78 77 77 76 75 74 73 72 71 70 69 67 66 64 62 60 59 58 57 56 54 53 51 50 48 47 44 41 38 33 32 32 31 31 31 32 31 30 34 34 31 32 34 34 33 33 34 33 32 35 39 41 42 42 42 42 41 38 33 30 30 30 31 32 30 27 25 23 24 26 30 32 33 39 45 47 45 44 42 40 39 39 39 38
72 72 72 72 71 70 69 68 67 66 65 64 63 61 60 58 57 56 55 53 52 50 48 47 46 44 43 41 38 36 33 32 32 33 32 30 31 33 33 33 34 35 35 32 32 34 35 34 34 34 34 38 41 42 42 41 40 40 38 35 34 32 32 32 34 32 27 24 22 22 23 27 30 31 33 40 47 48 46 44 42 40 39 37 37
65 65 65 65 65 65 63 62 61 60 59 59 58 57 56 55 53 52 51 49 47 46 44 43 42 41 40 38 37 35 32 31 30 31 31 30 30 34 37 37 35 35 36 33 28 31 36 35 34 35 34 35 40 42 42 41 39 39 38 38 36 34 34 33 34 34 29 24 22 22 22 23 26 29 31 35 43 49 48 47 46 44 42 40 38
58 58 58 59 59 59 57 56 55 55 55 55 54 53 52 51 49 48 46 45 43 42 40 39 39 38 37 36 35 33 31 29 28 27 27 27 29 33 37 40 39 35 36 37 31 28 33 37 37 38 36 35 38 42 43 42 40 40 40 38 36 35 36 34 33 35 33 27 22 22 22 22 24 27 30 32 37 46 49 49 48 47 45 44 42
53 53 53 53 54 53 52 51 51 51 51 51 50 50 48 47 45 44 43 41 40 39 38 37 36 36 35 34 33 32 30 28 26 25 25 26 29 33 36 38 40 38 38 39 37 33 32 36 39 40 40 39 38 40 42 43 42 42 40 38 36 35 37 37 34 35 36 30 22 21 24 24 24 25 28 31 34 41 48 49 49 48 47 45 43
49 49 49 49 49 49 49 48 47 47 47 47 47 45 44 43 42 40 39 38 38 37 36 35 35 34 33 32 31 30 29 27 25 25 26 29 31 34 36 38 40 40 41 40 39 39 37 38 39 40 41 42 41 40 40 42 43 42 40 37 36 35 37 38 35 35 38 33 24 21 24 24 24 24 25 29 33 38 45 49 49 49 48 46 45
46 45 45 45 45 45 45 45 44 43 43 43 42 41 41 40 39 38 37 36 36 35 35 34 33 32 31 31 29 28 28 26 25 26 27 29 31 33 35 38 40 40 42 42 40 39 40 41 40 39 40 42 43 43 42 42 42 40 37 34 34 36 38 39 37 37 39 37 28 22 23 25 24 23 23 26 32 36 41 46 49 50 49 48 47
42 41 41 42 41 41 41 42 41 40 39 39 39 38 38 37 36 36 35 34 34 34 33 33 32 30 30 29 28 28 28 27 26 26 27 29 30 32 33 36 39 40 43 47 46 41 38 38 39 39 41 43 44 43 43 42 41 39 36 34 34 35 38 39 38 39 40 39 33 26 23 25 24 23 22 23 28 33 38 42 46 49 50 50 49
40 38 38 38 38 38 38 38 37 36 37 37 36 36 35 35 34 34 33 33 32 32 32 31 30 29 29 28 28 28 28 28 27 27 27 28 29 31 32 35 39 41 44 48 51 48 42 39 39 40 42 45 45 44 44 44 43 41 38 37 36 35 37 39 39 41 42 40 37 32 27 25 26 25 23 22 24 28 33 38 43 46 48 49 49
39 36 35 35 35 34 35 35 34 34 34 34 34 34 33 33 33 33 32 32 31 31 30 30 28 28 28 28 28 28 28 29 28 27 27 28 29 30 31 34 37 41 44 47 50 52 49 44 42 42 43 45 46 46 46 47 46 44 41 41 40 37 36 39 40 41 42 41 39 37 32 29 29 29 27 24 24 24 27 32 38 43 45 47 48
37 34 33 33 33 33 32 32 32 32 33 33 33 32 32 32 32 33 33 32 32 31 30 29 28 28 28 28 28 28 29 29 29 29 28 28 29 30 30 32 36 39 43 47 51 53 51 48 46 44 44 45 46 46 48 49 49 47 45 44 44 41 38 38 41 42 42 42 40 38 36 33 32 31 29 26 24 23 24 26 31 37 42 44 46
36 34 33 33 33 32 32 32 32 33 33 33 33 32 31 31 32 33 33 33 33 32 31 30 29 29 29 29 29 29 30 30 30 30 29 29 29 30 30 31 34 37 39 43 49 53 53 51 49 47 45 45 46 47 48 50 51 51 49 47 46 45 42 39 41 44 45 44 42 40 38 36 34 32 29 27 25 24 24 24 26 30 36 40 42
36 34 34 33 33 32 32 32 32 34 34 34 34 33 32 32 33 34 34 34 34 34 33 32 31 30 30 30 30 30 31 31 31 31 31 30 30 30 30 31 33 35 37 40 44 49 53 54 53 50 48 46 46 47 47 48 51 52 51 49 48 47 46 44 44 45 46 46 44 42 40 38 35 33 30 28 27 26 25 25 24 26 30 34 37
36 35 35 34 33 33 32 31 32 33 35 35 35 34 33 33 34 35 36 35 35 35 34 33 32 31 31 31 31 31 31 31 31 32 32 31 31 31 31 31 33 34 36 39 41 45 50 54 54 52 49 48 47 47 47 47 49 51 52 50 49 49 49 49 48 47 47 47 45 44 42 39 37 35 33 31 29 28 27 27 26 25 26 29 33
38 37 36 35 35 34 33 33 33 34 35 36 35 35 34 34 35 36 37 37 37 36 36 35 34 34 33 33 32 32 32 32 32 32 33 33 32 32 32 32 33 34 35 37 40 43 47 51 54 53 50 48 48 47 47 47 47 49 51 51 50 50 50 51 50 49 48 47 46 45 44 41 39 38 36 34 32 30 30 29 29 28 27 28 29
40 39 38 38 37 37 36 35 35 36 37 37 36 35 35 34 35 37 38 38 38 38 37 37 37 37 36 35 34 33 33 33 33 33 34 34 34 33 33 33 33 34 35 37 39 42 45 48 51 54 53 49 49 49 48 48 48 48 50 51 51 51 52 52 51 50 49 49 49 48 46 44 42 41 40 38 35 34 33 33 32 31 30 30 30
43 42 40 40 40 40 39 38 38 39 39 39 38 37 36 36 36 37 38 38 39 39 39 39 39 39 39 38 37 35 34 34 35 35 35 35 35 35 34 35 35 35 36 37 38 40 43 46 48 53 55 53 51 51 50 50 50 50 51 52 52 52 53 53 53 52 52 51 50 49 48 47 45 43 42 40 39 38 37 37 36 34 32 32 33
46 44 43 43 43 43 42 41 41 41 42 42 41 40 39 37 37 38 38 39 39 39 40 40 41 41 41 41 40 39 37 37 36 36 37 37 37 37 36 36 36 37 37 38 39 40 42 44 46 49 54 56 56 53 51 51 52 52 53 53 53 53 54 55 55 55 54 52 51 51 49 48 47 46 44 43 42 42 42 41 40 38 35 35 35
Wind_Direction
281 282 282 283 283 284 286 286 287 289 289 290 290 291 292 293 293 295 296 297 298 299 300 301 302 302 303 304 304 305 306 306 306 306 307 307 307 308 308 309 310 310 311 311 310 310 310 309 307 307 307 306 305 304 303 304 305 307 307 305 302 299 295 295 295 291 282 273 274 274 269 261 251 239 224 215 223 230 230 231 233 234 233 229 225
282 282 283 283 284 285 286 287 288 289 289 290 290 290 291 293 294 295 296 297 298 299 300 301 301 302 302 303 303 304 304 305 305 305 306 306 306 307 308 308 309 309 309 310 309 309 309 308 306 306 305 304 303 303 302 303 304 306 305 303 299 295 293 293 292 286 277 269 270 270 265 255 245 234 220 212 217 227 232 234 235 234 233 230 227
282 282 283 283 284 285 285 286 287 288 289 289 290 290 291 293 294 295 296 296 297 298 299 300 300 301 301 302 302 303 303 304 304 304 304 305 305 306 307 307 308 308 308 308 308 308 307 306 305 305 304 303 302 301 301 302 303 304 303 300 295 292 291 291 288 281 273 267 266 266 261 250 238 228 217 210 213 222 229 234 235 234 233 231 228
282 282 282 283 283 284 285 286 287 288 289 289 290 290 291 292 293 294 295 296 297 298 298 298 299 300 300 301 301 302 302 303 303 303 304 304 304 305 306 307 307 307 307 307 307 307 306 305 304 303 303 302 301 300 300 301 302 302 300 297 291 289 290 287 284 277 270 266 263 262 257 246 233 225 217 209 212 219 223 228 232 233 233 232 230
281 281 282 282 283 284 285 285 287 288 288 289 290 290 291 292 293 294 294 295 296 297 297 297 298 299 299 300 300 301 302 302 302 302 303 303 304 305 305 306 306 306 306 306 306 306 304 303 303 302 302 301 300 299 299 300 301 300 298 293 287 287 287 284 280 274 268 266 262 256 251 243 231 222 217 211 212 218 220 223 227 230 232 233 232
281 281 282 282 283 284 284 285 286 287 288 289 290 291 291 292 293 293 294 295 295 296 296 296 297 298 298 299 300 300 301 301 302 302 302 303 303 304 304 305 305 305 305 305 305 304 303 302 301 301 301 300 300 298 298 299 300 298 295 289 284 285 285 281 277 271 268 266 260 250 243 238 228 220 217 213 212 217 220 221 223 227 230 232 233
281 281 281 282 283 284 285 285 286 287 288 288 289 290 291 291 292 293 293 294 294 295 295 295 296 297 298 298 299 299 300 301 301 301 301 302 302 302 303 303 304 304 304 304 304 303 301 300 300 300 300 300 299 297 297 298 298 296 291 285 282 284 282 278 273 269 267 266 259 245 237 232 224 218 218 216 214 217 220 222 223 224 228 231 234
280 281 281 282 283 283 284 285 286 287 287 288 288 289 290 291 291 291 292 293 293 293 294 295 296 296 297 298 298 299 300 300 300 300 300 301 301 301 301 302 302 303 303 303 302 301 300 299 299 299 299 299 297 296 296 297 296 293 287 282 280 282 279 274 269 267 268 267 257 242 234 229 220 216 217 217 216 217 221 223 224 224 226 230 233
279 280 281 281 282 283 284 284 285 286 286 287 288 288 289 290 290 291 291 291 291 292 293 294 295 296 297 297 298 298 299 299 299 299 300 300 300 300 300 301 301 301 301 301 300 299 298 298 297 297 297 297 296 295 295 295 294 289 283 278 279 280 276 270 266 267 269 266 255 239 231 228 220 215 216 217 217 217 220 224 224 224 226 229 233
279 279 280 281 281 282 283 284 284 285 286 286 287 288 288 289 290 290 290 290 291 292 293 294 295 296 297 297 297 298 298 298 298 298 299 299 299 299 299 300 300 300 299 299 298 297 296 296 296 296 296 296 295 294 294 293 290 285 278 275 277 276 271 266 264 268 268 264 253 238 229 226 220 216 218 218 218 216 218 223 224 225 226 229 233
279 279 280 280 281 282 283 283 284 285 285 286 287 287 288 289 290 289 289 291 292 293 293 294 295 295 296 296 297 297 297 297 297 297 297 298 298 297 298 298 298 298 297 297 296 295 295 294 295 295 295 294 293 293 293 291 287 280 273 272 275 273 268 264 264 266 266 261 250 237 227 222 218 217 220 221 220 217 216 220 224 225 226 229 232
278 279 280 281 281 282 283 283 284 284 285 285 286 286 287 289 289 288 290 292 292 292 293 294 294 294 295 295 296 296 296 296 296 296 296 296 296 296 296 296 296 296 295 295 294 293 293 293 293 293 293 293 292 291 290 287 282 274 269 271 273 271 266 264 265 264 262 258 248 235 226 221 217 216 220 222 222 220 217 217 222 225 226 229 232
278 279 280 281 281 282 282 283 283 284 284 285 285 285 286 287 286 288 290 290 291 292 292 292 293 293 294 294 294 295 295 295 294 294 294 295 295 295 295 295 295 294 293 293 292 291 291 292 292 292 292 290 290 289 287 283 277 268 266 270 272 270 267 265 265 261 257 253 245 234 226 222 217 215 219 222 222 221 219 218 220 223 226 228 231
278 279 279 280 280 281 281 282 283 283 284 285 285 285 286 286 286 287 288 289 290 291 291 292 292 293 293 293 293 293 293 293 293 293 293 294 294 294 294 294 293 292 292 291 290 290 290 290 290 290 289 288 287 286 282 278 270 264 266 270 271 269 267 265 262 258 253 248 242 233 226 221 217 215 218 223 222 221 220 219 220 221 224 228 230
277 278 279 279 280 280 281 281 282 283 284 284 285 285 286 286 287 287 288 289 289 290 290 291 292 292 292 292 292 292 292 292 292 292 292 293 293 293 293 292 291 290 290 289 289 288 289 288 288 288 286 285 284 282 277 271 263 261 266 269 268 267 265 261 256 253 249 245 240 232 225 221 217 215 217 222 224 221 219 219 221 221 222 226 229
277 278 278 279 279 280 280 281 282 283 283 284 284 285 286 286 287 288 288 289 289 290 290 291 291 291 291 291 291 291 291 291 291 292 292 292 292 292 292 291 289 289 288 287 287 287 287 287 286 285 283 281 279 276 270 262 257 260 265 267 266 264 260 256 253 252 249 246 240 232 225 221 218 215 216 221 225 224 220 219 221 222 222 224 228
277 277 278 278 279 279 280 281 282 282 283 283 284 285 286 287 287 288 288 288 289 289 290 290 290 290 290 290 290 290 290 290 291 291 291 291 291 291 290 289 288 287 286 285 285 285 285 285 283 280 278 276 274 269 263 255 254 260 263 263 261 258 255 254 254 254 251 248 242 233 226 223 219 217 216 219 224 226 223 221 221 224 225 226 228
276 277 277 278 279 280 280 281 282 282 283 283 284 285 286 287 287 287 288 288 288 289 289 289 289 289 289 289 289 289 289 290 291 291 290 290 291 290 289 288 287 285 284 283 283 283 283 282 279 275 273 270 268 262 254 250 255 259 259 257 254 252 251 253 254 253 252 248 243 234 227 225 222 219 218 219 222 227 228 225 224 225 227 229 231
277 277 278 279 279 280 281 281 281 282 283 284 284 285 286 286 287 287 287 287 287 288 288 288 288 288 288 288 289 289 289 290 290 290 290 290 290 289 287 286 284 283 282 282 282 281 280 277 273 269 267 264 261 255 247 248 256 258 255 251 247 247 249 251 251 251 250 248 244 235 227 225 224 221 220 221 222 225 230 232 231 230 230 231 232
277 278 279 279 280 280 281 281 282 282 283 284 284 285 285 286 286 286 286 286 286 286 286 287 287 287 287 287 287 287 287 289 290 290 290 289 288 287 286 283 282 282 281 280 279 278 275 271 266 263 260 258 256 248 243 248 255 256 251 244 240 242 244 245 247 249 249 248 244 236 227 223 224 222 221 223 224 226 232 236 237 236 235 234 234
278 278 279 279 280 280 281 281 281 282 283 283 283 284 284 284 285 285 285 285 285 285 285 285 285 285 286 286 286 287 287 289 290 290 289 288 286 284 283 282 281 280 278 278 277 274 271 266 259 256 254 252 250 244 242 249 254 252 246 237 233 236 237 240 244 247 249 249 246 237 227 223 223 223 221 223 225 230 235 238 239 240 239 237 236
277 278 278 279 279 280 280 280 281 281 282 282 282 283 283 283 284 284 284 284 284 284 284 284 284 283 284 285 285 286 288 290 289 289 288 288 286 283 281 281 280 277 276 276 274 270 266 260 253 249 248 248 247 242 242 249 253 249 240 232 229 230 232 237 242 247 250 250 247 237 227 223 223 223 222 221 222 229 236 238 239 241 242 241 240
276 276 277 277 278 278 279 280 280 280 281 281 282 282 282 283 283 283 283 283 283 283 284 284 284 284 284 284 285 286 288 288 288 288 287 286 286 284 282 281 278 276 275 273 269 265 260 253 245 242 243 245 246 244 244 249 250 243 235 231 228 228 232 236 241 246 250 251 249 239 227 223 223 223 222 221 220 224 230 235 237 240 243 244 242
275 275 276 276 277 278 278 279 279 279 280 280 281 281 282 282 282 282 282 282 282 283 283 284 284 284 284 284 285 286 286 287 287 285 283 284 285 285 284 280 277 276 274 270 265 258 252 243 236 237 241 245 246 246 245 248 246 236 232 232 230 231 235 239 243 246 249 251 251 243 230 223 222 222 222 222 222 223 226 230 234 238 242 244 244
274 275 275 276 276 277 277 278 278 278 279 280 280 280 280 280 280 281 281 281 282 283 283 284 284 284 284 284 284 285 285 286 285 281 282 284 284 284 284 279 277 277 270 265 260 252 246 236 229 233 240 244 247 248 247 248 242 230 229 233 232 237 241 244 247 248 249 250 251 246 234 225 223 223 223 223 225 225 227 229 232 236 241 244 245
274 275 275 275 276 276 276 276 277 277 278 278 279 279 279 279 280 280 280 281 282 283 284 284 284 285 285 285 284 285 285 284 281 279 282 283 282 281 279 276 276 272 263 258 254 248 241 228 224 232 240 243 247 249 249 249 239 226 228 233 235 239 244 249 251 250 249 248 249 246 237 229 225 225 226 226 227 228 229 230 232 236 241 243 245
274 275 275 275 275 275 275 275 276 276 277 277 278 278 278 278 279 280 281 282 283 283 284 284 285 285 285 284 284 284 284 282 279 279 281 278 279 277 273 273 273 263 252 251 248 243 234 221 221 231 240 244 247 250 250 250 238 224 227 233 236 240 245 253 256 253 248 246 247 244 238 232 229 228 229 230 230 230 230 231 233 235 238 240 243
274 274 274 274 274 274 274 275 275 276 276 277 277 277 278 278 279 280 281 282 283 283 284 284 284 284 283 283 284 284 283 283 281 281 279 275 276 275 270 269 266 256 245 243 243 237 230 221 222 230 239 241 244 249 250 250 238 224 228 233 235 242 249 257 262 256 247 244 246 243 237 232 231 231 231 232 232 232 231 233 234 233 234 236 242
273 273 273 273 273 273 274 274 275 275 276 276 277 278 278 279 280 281 282 282 283 283 283 283 283 283 283 283 283 283 283 283 281 279 277 274 273 271 268 263 255 250 241 238 239 233 227 223 226 233 238 239 241 246 248 248 237 225 229 233 235 244 251 259 263 256 245 243 245 244 238 231 231 232 233 235 235 233 232 234 235 234 233 234 240
271 272 272 272 272 273 273 274 275 275 276 277 277 278 278 279 280 281 281 282 282 282 282 282 282 282 282 282 282 282 282 282 280 277 273 271 268 265 262 257 248 245 238 234 234 232 228 225 228 235 239 239 241 243 242 242 235 227 231 235 236 243 251 257 258 253 246 244 244 244 240 233 230 231 233 235 236 235 234 235 235 235 236 237 239
271 271 271 272 272 273 273 274 275 276 276 277 277 278 278 279 280 280 280 280 281 280 281 281 281 281 281 281 281 281 280 279 276 273 269 265 262 258 255 253 247 239 233 231 231 230 230 228 228 234 237 238 238 238 235 233 232 230 234 239 240 244 249 251 250 249 248 247 245 243 241 237 232 230 230 234 236 236 236 235 236 237 239 240 241
270 271 271 272 273 273 274 274 275 275 276 276 277 277 278 278 278 279 279 278 278 278 279 279 279 280 280 280 279 278 277 276 273 268 264 259 254 249 244 246 246 235 227 229 233 230 230 231 232 236 239 237 235 235 230 228 229 230 235 240 244 247 248 247 245 245 246 247 249 248 244 241 236 232 230 233 236 236 236 235 236 238 241 243 244
271 272 272 272 273 273 273 274 274 275 275 276 276 276 277 277 277 277 277 276 276 276 277 277 277 278 278 278 277 275 273 271 269 265 260 253 246 238 229 231 236 234 229 229 233 232 231 233 234 238 240 237 234 232 228 226 228 231 235 241 245 248 248 246 243 242 245 248 252 254 250 245 240 236 232 232 236 237 235 234 236 238 241 244 245
272 273 273 273 273 273 273 273 274 274 274 275 275 275 275 275 275 275 275 275 275 275 275 275 275 275 275 275 274 272 268 262 258 258 256 248 240 231 222 224 227 228 230 229 230 232 234 235 234 234 234 234 233 230 226 226 229 232 237 244 248 248 247 245 241 240 244 248 254 258 256 249 243 240 236 233 234 236 235 233 233 235 237 241 244
272 273 273 273 273 273 273 273 273 273 273 273 273 273 273 273 273 273 273 273 273 273 273 273 272 272 272 272 270 268 264 258 253 252 251 245 237 227 220 221 223 223 224 226 228 230 233 237 235 229 228 229 230 227 224 226 232 235 240 248 251 249 247 243 239 238 239 245 254 261 260 254 247 242 240 236 234 235 236 234 233 234 235 237 241
272 272 272 273 273 272 272 272 272 272 272 272 272 272 272 272 272 272 272 271 271 271 270 270 269 269 269 267 267 265 261 257 252 248 245 241 235 228 220 217 218 221 219 218 223 229 232 233 231 226 225 228 228 226 225 227 232 237 242 248 251 249 248 245 241 238 235 239 250 259 261 257 251 245 241 239 236 235 236 236 236 236 236 237 239
269 269 269 270 270 270 270 270 271 271 271 271 271 271 272 271 271 271 271 270 269 268 267 266 266 265 264 264 263 262 259 255 249 243 239 235 233 232 226 217 214 216 216 215 216 224 229 228 226 224 223 226 229 228 227 228 231 237 244 248 249 249 250 248 245 240 235 234 243 257 262 260 257 250 243 240 237 235 235 237 238 239 239 239 240
266 266 266 266 267 268 268 268 268 269 269 270 270 270 271 270 270 270 269 268 266 264 263 262 261 261 261 261 260 259 257 252 245 237 231 230 229 231 228 218 212 212 212 213 214 219 225 226 224 223 222 224 227 229 231 232 233 238 243 246 247 249 251 251 248 243 235 230 236 255 262 262 261 257 248 242 238 235 234 235 238 240 241 242 242
264 263 264 264 265 266 267 267 267 267 268 268 269 269 269 268 268 267 266 265 263 262 260 259 258 258 258 258 258 257 255 250 243 235 229 228 227 229 228 219 214 212 209 211 215 220 226 227 224 222 223 225 226 226 229 233 235 237 240 244 247 249 252 253 250 243 236 231 229 244 259 262 263 260 252 246 240 236 235 236 237 240 242 243 244
263 263 263 263 264 265 266 267 267 267 267 267 267 266 265 265 264 263 262 260 259 259 258 257 256 256 255 255 255 254 253 251 245 238 233 231 229 229 229 223 219 217 213 212 213 217 224 229 226 223 223 225 225 224 226 229 231 233 237 243 247 248 250 252 250 242 236 233 227 230 249 260 263 260 254 248 243 239 237 237 239 240 242 244 245
263 262 262 263 264 265 266 267 267 266 266 265 264 263 262 261 261 260 258 256 256 256 256 255 253 252 252 252 252 253 253 251 248 243 238 236 233 230 229 225 222 220 219 217 216 215 219 225 227 225 225 226 226 225 225 227 230 232 234 239 245 247 248 249 247 241 236 235 231 226 236 252 258 257 253 248 243 242 241 240 240 241 243 245 246
263 262 262 263 264 264 263 264 264 264 263 263 262 260 259 259 258 257 255 254 254 254 253 252 250 249 250 251 252 253 254 253 250 246 242 241 238 233 230 227 222 220 219 220 221 221 221 223 227 229 228 228 227 226 226 226 229 232 231 234 240 243 244 245 244 241 237 237 236 230 227 238 249 252 250 248 244 242 242 242 242 243 244 246 247
261 261 261 260 260 259 258 259 260 261 260 259 258 258 257 256 255 254 254 254 253 252 251 250 248 249 249 250 252 253 253 254 253 248 245 243 242 237 232 229 225 221 220 220 222 223 223 223 226 228 229 228 228 227 226 226 228 230 230 231 235 238 240 242 242 241 239 238 238 236 230 230 238 244 246 247 247 246 244 244 244 244 246 247 248
260 260 258 257 256 253 252 253 254 255 256 256 256 255 254 253 253 253 254 254 254 252 251 250 249 249 250 250 252 253 253 254 254 251 247 245 244 241 236 231 228 224 222 221 222 223 220 220 222 224 226 227 227 228 227 226 226 228 231 233 233 235 237 238 239 239 238 237 237 237 236 233 234 238 243 246 250 252 251 249 246 245 245 247 248
259 258 257 256 255 253 251 249 249 250 251 253 254 254 253 253 253 254 254 255 255 253 252 251 250 250 251 251 252 252 253 253 253 252 250 247 246 244 239 234 230 227 225 224 224 224 220 218 221 222 225 226 227 228 229 229 228 228 231 234 233 234 235 236 235 235 236 237 237 236 237 237 236 238 242 246 249 253 255 255 252 249 246 247 248
258 257 257 257 258 257 254 251 249 250 250 250 252 252 253 254 256 256 257 256 256 255 254 253 252 251 251 252 252 252 252 252 252 252 251 249 248 246 243 237 233 230 228 225 226 226 222 220 222 225 228 229 228 229 229 230 229 229 231 233 233 232 233 234 234 235 236 238 239 238 237 237 238 240 244 247 249 253 256 258 258 255 251 249 250
256 256 257 258 258 258 257 255 253 252 252 251 251 251 252 254 257 258 259 258 257 256 256 255 254 253 251 251 251 252 251 251 250 251 251 251 249 248 247 242 236 232 230 227 227 227 225 223 224 226 229 230 229 229 229 229 229 229 229 231 232 232 232 235 237 238 239 239 239 239 237 237 237 240 245 247 250 254 256 258 259 259 257 254 252
258 257 258 258 258 257 256 255 254 254 254 253 252 252 252 253 255 257 258 257 256 256 256 256 256 255 253 252 250 250 251 251 250 249 250 251 250 249 248 246 241 235 232 230 228 227 227 227 226 225 228 229 227 227 230 230 228 227 227 228 230 232 233 236 239 240 241 240 239 238 238 238 237 239 243 245 249 254 255 256 257 259 260 259 256
261 260 260 260 259 258 255 253 253 254 255 255 254 254 253 253 253 254 255 255 255 254 255 256 256 255 254 253 251 249 249 250 249 249 249 249 250 249 248 247 245 240 235 232 230 228 228 228 227 225 225 226 224 225 229 230 228 227 227 228 230 232 233 236 238 239 240 240 240 240 239 239 239 239 242 244 248 253 256 256 257 259 261 262 262
262 261 261 261 260 259 258 255 253 254 255 256 255 255 254 253 253 253 254 254 254 253 253 254 255 255 254 254 253 250 248 248 248 248 248 248 249 249 248 247 246 244 240 236 233 231 229 229 228 226 225 225 225 224 227 230 230 229 231 232 232 232 233 234 237 238 238 239 241 242 241 240 240 240 242 245 248 253 257 258 258 258 261 264 265
264 263 262 261 260 259 258 257 256 256 256 257 256 256 256 255 255 254 254 254 254 254 253 253 254 254 254 253 253 252 250 248 248 247 247 247 248 249 248 247 246 245 243 240 236 234 232 230 229 228 226 226 227 226 225 228 231 231 232 234 234 233 233 234 235 236 237 238 240 242 243 242 242 244 244 245 249 253 256 258 258 257 258 262 265
Height
10890 10890 10890 10890 10888 10888 10889 10889 10889 10890 10891 10890 10889 10889 10888 10888 10887 10887 10886 10886 10885 10884 10883 10883 10883 10882 10881 10880 10880 10878 10876 10874 10872 10870 10868 10867 10866 10864 10862 10861 10860 10860 10859 10858 10856 10853 10852 10849 10846 10844 10842 10840 10838 10836 10834 10833 10832 10831 10829 10827 10827 10827 10826 10825 10826 10826 10826 10826 10826 10827 10827 10827 10827 10827 10827 10827 10828 10829 10830 10830 10831 10831 10832 10832 10832
10885 10885 10885 10884 10883 10884 10884 10884 10885 10886 10886 10885 10885 10884 10883 10883 10882 10882 10881 10881 10881 10880 10880 10879 10879 10878 10877 10876 10875 10874 10872 10870 10868 10866 10864 10862 10861 10860 10858 10857 10856 10856 10855 10854 10852 10849 10847 10845 10842 10840 10838 10836 10834 10833 10831 10830 10829 10828 10826 10825 10824 10824 10823 10822 10824 10824 10824 10824 10824 10825 10825 10826 10826 10826 10826 10826 10827 10827 10828 10829 10829 10830 10830 10831 10831
10880 10881 10881 10880 10879 10879 10880 10880 10881 10881 10881 10880 10879 10879 10879 10878 10878 10877 10876 10876 10876 10876 10876 10875 10874 10873 10873 10872 10871 10870 10868 10867 10864 10862 10860 10858 10856 10855 10854 10853 10852 10851 10850 10849 10848 10845 10843 10841 10838 10835 10834 10832 10830 10830 10828 10827 10826 10825 10823 10822 10821 10821 10820 10820 10821 10822 10822 10822 10822 10823 10824 10824 10824 10824 10824 10824 10825 10825 10826 10827 10827 10828 10829 10829 10829
10876 10876 10877 10875 10874 10874 10875 10876 10877 10877 10877 10875 10874 10874 10873 10873 10872 10872 10871 10871 10871 10871 10871 10870 10870 10869 10868 10867 10866 10865 10864 10863 10861 10858 10856 10854 10852 10850 10849 10848 10847 10846 10845 10844 10843 10841 10838 10836 10833 10831 10830 10828 10827 10826 10825 10824 10823 10822 10820 10819 10818 10818 10818 10817 10819 10820 10820 10820 10821 10821 10822 10822 10822 10823 10823 10823 10823 10823 10824 10824 10825 10826 10827 10827 10827
10870 10871 10871 10871 10869 10869 10871 10872 10872 10872 10872 10871 10870 10869 10868 10868 10867 10866 10866 10866 10866 10866 10865 10865 10865 10864 10863 10862 10861 10860 10860 10858 10856 10854 10851 10850 10847 10846 10845 10843 10842 10841 10840 10839 10838 10836 10834 10831 10829 10827 10826 10824 10823 10822 10822 10821 10820 10819 10817 10816 10815 10815 10815 10815 10817 10818 10818 10818 10819 10819 10820 10820 10821 10821 10821 10821 10821 10821 10822 10822 10823 10824 10825 10825 10826
10865 10865 10865 10865 10864 10864 10866 10867 10867 10867 10866 10866 10865 10864 10864 10862 10862 10861 10861 10861 10860 10860 10859 10859 10859 10858 10858 10856 10855 10854 10854 10854 10852 10849 10847 10844 10843 10841 10840 10839 10837 10836 10835 10834 10833 10831 10829 10827 10825 10823 10822 10820 10819 10819 10818 10818 10816 10815 10814 10813 10812 10813 10813 10813 10814 10815 10816 10816 10817 10817 10818 10818 10819 10819 10819 10819 10819 10820 10820 10821 10821 10822 10823 10824 10824
10860 10860 10859 10859 10859 10859 10861 10862 10862 10862 10861 10860 10860 10859 10859 10857 10856 10855 10855 10855 10854 10853 10853 10853 10853 10852 10852 10851 10850 10849 10848 10848 10847 10845 10843 10840 10838 10836 10834 10833 10832 10831 10830 10829 10828 10826 10824 10822 10820 10819 10817 10817 10816 10815 10815 10814 10813 10812 10811 10810 10810 10810 10810 10810 10812 10813 10813 10814 10815 10815 10816 10816 10817 10817 10818 10818 10818 10818 10819 10819 10820 10821 10821 10822 10822
10854 10854 10854 10854 10855 10855 10855 10856 10856 10857 10856 10855 10855 10854 10854 10852 10851 10850 10849 10849 10848 10847 10847 10846 10846 10846 10845 10845 10844 10844 10843 10842 10841 10840 10839 10836 10834 10832 10830 10828 10827 10826 10825 10824 10822 10821 10819 10817 10816 10814 10813 10813 10812 10811 10811 10811 10810 10809 10807 10807 10807 10807 10808 10808 10809 10810 10811 10812 10813 10813 10814 10814 10815 10816 10816 10816 10816 10817 10817 10818 10819 10819 10820 10820 10821
10848 10848 10848 10849 10849 10849 10850 10850 10850 10850 10850 10850 10850 10849 10848 10847 10845 10844 10843 10842 10841 10840 10840 10839 10840 10840 10839 10838 10838 10838 10837 10836 10836 10834 10833 10832 10830 10827 10825 10824 10822 10821 10820 10819 10818 10815 10814 10813 10811 10810 10809 10809 10808 10808 10808 10807 10806 10805 10805 10804 10804 10805 10805 10806 10807 10808 10809 10809 10810 10811 10812 10812 10813 10813 10814 10814 10815 10815 10816 10817 10817 10818 10818 10819 10819
10842 10842 10842 10843 10843 10844 10844 10844 10844 10843 10844 10844 10845 10844 10841 10840 10839 10836 10836 10836 10836 10835 10834 10833 10833 10833 10832 10831 10831 10831 10831 10830 10829 10829 10828 10827 10825 10822 10819 10819 10818 10816 10814 10815 10813 10811 10809 10808 10806 10805 10804 10804 10804 10804 10804 10803 10803 10802 10802 10801 10801 10802 10802 10803 10804 10805 10806 10807 10808 10809 10810 10811 10811 10812 10812 10813 10813 10813 10814 10815 10816 10816 10817 10817 10818
10835 10835 10835 10836 10836 10837 10837 10837 10837 10836 10837 10837 10839 10839 10834 10834 10831 10827 10828 10829 10829 10829 10828 10828 10827 10827 10826 10825 10824 10824 10824 10823 10822 10822 10822 10823 10822 10818 10815 10814 10813 10811 10809 10810 10808 10806 10804 10803 10801 10801 10800 10800 10800 10800 10800 10799 10799 10799 10799 10798 10798 10799 10800 10801 10802 10802 10803 10804 10805 10807 10808 10808 10809 10810 10811 10811 10811 10812 10812 10813 10814 10815 10815 10815 10816
10828 10828 10829 10829 10830 10830 10830 10830 10829 10829 10830 10830 10832 10834 10831 10830 10824 10818 10821 10823 10822 10823 10822 10822 10822 10822 10821 10820 10818 10817 10817 10817 10815 10814 10814 10816 10817 10814 10811 10809 10808 10806 10804 10804 10803 10802 10799 10798 10796 10796 10796 10796 10796 10796 10796 10795 10796 10796 10796 10795 10795 10797 10797 10798 10799 10800 10800 10801 10802 10804 10805 10806 10807 10808 10808 10809 10810 10810 10811 10811 10812 10813 10814 10814 10814
10822 10822 10823 10823 10823 10823 10823 10822 10822 10822 10823 10823 10823 10825 10828 10827 10821 10816 10816 10816 10817 10817 10816 10816 10816 10816 10815 10814 10813 10811 10811 10811 10809 10808 10807 10808 10809 10808 10806 10803 10802 10800 10798 10798 10798 10796 10795 10793 10792 10791 10791 10792 10792 10792 10792 10792 10792 10792 10792 10793 10793 10794 10795 10796 10796 10797 10797 10798 10799 10801 10802 10803 10804 10805 10806 10807 10807 10808 10809 10809 10810 10811 10812 10812 10813
10816 10816 10817 10817 10816 10816 10816 10815 10815 10815 10815 10816 10814 10815 10820 10820 10818 10816 10812 10811 10812 10811 10810 10810 10810 10809 10809 10808 10806 10805 10804 10804 10804 10803 10801 10802 10801 10801 10801 10798 10796 10794 10793 10792 10792 10791 10790 10788 10787 10786 10786 10787 10788 10788 10788 10788 10789 10788 10789 10790 10790 10791 10792 10793 10793 10794 10795 10795 10796 10798 10799 10800 10801 10802 10803 10804 10805 10806 10807 10807 10808 10809 10810 10810 10811
10810 10810 10810 10809 10809 10809 10809 10808 10808 10808 10808 10807 10805 10807 10809 10810 10810 10809 10807 10806 10805 10804 10804 10803 10803 10802 10802 10801 10799 10798 10797 10796 10797 10797 10796 10796 10795 10794 10794 10793 10790 10788 10787 10787 10786 10785 10784 10783 10782 10781 10782 10783 10783 10784 10784 10784 10785 10785 10786 10787 10787 10788 10789 10789 10790 10791 10792 10792 10793 10795 10796 10797 10798 10799 10801 10802 10802 10803 10804 10805 10806 10806 10807 10808 10809
10802 10803 10802 10802 10802 10802 10802 10801 10801 10802 10801 10798 10798 10799 10799 10800 10801 10800 10800 10799 10798 10797 10796 10796 10796 10795 10794 10793 10792 10791 10790 10789 10789 10790 10790 10789 10789 10788 10787 10787 10785 10783 10782 10781 10780 10780 10779 10778 10777 10777 10777 10778 10779 10779 10780 10780 10781 10782 10783 10784 10784 10785 10786 10786 10787 10788 10789 10789 10790 10791 10793 10794 10795 10797 10798 10799 10800 10801 10802 10803 10803 10804 10805 10806 10806
10794 10794 10794 10794 10794 10795 10794 10794 10794 10793 10792 10790 10791 10791 10791 10792 10792 10792 10792 10792 10791 10790 10789 10789 10788 10787 10786 10785 10784 10783 10783 10783 10782 10783 10783 10782 10783 10782 10781 10780 10779 10778 10777 10776 10775 10775 10774 10772 10772 10772 10772 10773 10774 10775 10776 10776 10777 10778 10780 10780 10781 10782 10783 10784 10784 10785 10786 10787 10788 10789 10790 10791 10793 10794 10795 10796 10797 10799 10800 10800 10801 10802 10803 10804 10804
10785 10785 10786 10786 10786 10787 10787 10787 10786 10784 10783 10782 10783 10782 10783 10784 10784 10783 10783 10784 10783 10782 10781 10781 10780 10779 10777 10776 10777 10776 10775 10776 10776 10775 10776 10776 10776 10775 10774 10773 10773 10772 10771 10770 10770 10770 10769 10768 10767 10767 10768 10769 10769 10770 10771 10772 10773 10775 10776 10777 10778 10779 10780 10781 10782 10782 10783 10784 10785 10786 10788 10789 10791 10792 10793 10794 10795 10797 10798 10799 10800 10801 10801 10802 10803
10776 10777 10777 10778 10779 10779 10779 10778 10777 10775 10775 10775 10774 10774 10774 10775 10775 10774 10774 10775 10775 10775 10774 10773 10773 10771 10769 10769 10769 10769 10768 10769 10769 10768 10769 10769 10768 10768 10768 10767 10766 10766 10766 10765 10765 10765 10764 10764 10762 10762 10763 10764 10765 10766 10767 10769 10770 10772 10773 10773 10775 10776 10777 10778 10779 10779 10780 10781 10782 10784 10785 10787 10789 10791 10792 10793 10794 10795 10797 10798 10799 10799 10800 10800 10801
10767 10768 10768 10769 10769 10769 10769 10768 10767 10767 10767 10767 10766 10766 10766 10766 10766 10765 10766 10766 10767 10767 10766 10766 10766 10764 10762 10762 10762 10762 10762 10762 10762 10761 10761 10762 10762 10761 10761 10761 10760 10760 10760 10760 10760 10760 10760 10759 10758 10758 10759 10760 10760 10762 10764 10765 10767 10769 10769 10770 10772 10773 10774 10775 10776 10776 10777 10778 10779 10781 10783 10785 10786 10789 10790 10791 10793 10794 10795 10797 10797 10798 10798 10799 10799
10759 10759 10760 10760 10760 10759 10759 10758 10758 10758 10758 10758 10758 10758 10757 10757 10757 10757 10757 10757 10758 10759 10758 10760 10761 10757 10755 10754 10755 10755 10755 10756 10756 10755 10754 10755 10755 10755 10755 10755 10754 10754 10754 10754 10754 10755 10755 10755 10755 10754 10755 10756 10756 10758 10760 10762 10765 10766 10766 10768 10769 10770 10771 10772 10773 10773 10774 10775 10776 10778 10780 10782 10784 10786 10788 10790 10791 10793 10794 10795 10796 10796 10797 10797 10798
10752 10752 10751 10751 10750 10750 10749 10749 10749 10749 10749 10749 10750 10749 10749 10748 10748 10748 10748 10748 10749 10750 10750 10752 10754 10752 10749 10748 10749 10748 10749 10749 10749 10749 10747 10748 10749 10750 10750 10749 10748 10748 10748 10748 10749 10750 10751 10752 10751 10751 10751 10752 10753 10755 10757 10760 10762 10763 10763 10765 10766 10767 10768 10769 10770 10771 10771 10772 10774 10775 10777 10779 10781 10783 10785 10787 10788 10790 10791 10792 10794 10795 10795 10795 10796
10744 10744 10744 10743 10742 10741 10741 10741 10740 10740 10740 10740 10741 10741 10741 10740 10740 10740 10739 10740 10740 10741 10742 10743 10745 10745 10744 10743 10743 10743 10743 10743 10743 10742 10741 10742 10743 10744 10744 10744 10743 10743 10743 10743 10744 10746 10747 10748 10748 10748 10748 10749 10750 10752 10754 10757 10759 10760 10761 10762 10763 10764 10765 10766 10767 10768 10769 10770 10771 10772 10774 10777 10779 10781 10782 10784 10785 10786 10788 10789 10791 10792 10793 10793 10794
10734 10735 10735 10735 10734 10733 10733 10732 10731 10731 10731 10732 10733 10733 10733 10732 10732 10731 10731 10731 10732 10733 10734 10735 10736 10736 10736 10736 10737 10737 10737 10737 10737 10736 10735 10736 10737 10739 10739 10739 10738 10739 10739 10739 10740 10741 10743 10744 10744 10744 10745 10746 10747 10748 10751 10754 10756 10757 10758 10759 10760 10761 10762 10763 10764 10765 10766 10767 10768 10770 10771 10773 10776 10778 10779 10781 10782 10783 10785 10786 10788 10789 10790 10791 10792
10725 10726 10726 10726 10726 10725 10724 10723 10722 10722 10723 10724 10725 10725 10725 10724 10723 10723 10723 10724 10724 10725 10726 10727 10728 10728 10729 10729 10730 10730 10730 10731 10731 10731 10731 10731 10732 10733 10735 10735 10734 10734 10735 10735 10735 10736 10738 10740 10741 10741 10742 10743 10744 10745 10748 10750 10753 10755 10755 10756 10757 10758 10759 10760 10761 10762 10763 10765 10766 10767 10769 10771 10773 10774 10776 10778 10779 10781 10782 10783 10785 10786 10787 10788 10789
10715 10717 10717 10718 10717 10716 10715 10714 10713 10714 10715 10717 10718 10718 10717 10716 10716 10715 10716 10716 10717 10718 10717 10719 10720 10721 10721 10721 10722 10723 10724 10725 10726 10726 10727 10726 10727 10728 10730 10730 10730 10730 10731 10731 10731 10732 10734 10737 10738 10738 10739 10740 10741 10742 10744 10747 10750 10752 10752 10753 10754 10755 10756 10757 10759 10760 10761 10762 10763 10764 10766 10768 10770 10771 10773 10775 10776 10778 10779 10781 10782 10783 10784 10785 10787
10706 10707 10708 10709 10708 10707 10706 10705 10705 10706 10708 10710 10710 10710 10710 10709 10709 10708 10709 10710 10710 10710 10710 10710 10712 10714 10714 10713 10715 10716 10717 10719 10720 10721 10722 10722 10721 10723 10724 10724 10725 10725 10726 10727 10728 10729 10731 10733 10734 10735 10735 10737 10738 10739 10741 10743 10747 10749 10750 10750 10751 10752 10753 10754 10756 10757 10758 10759 10760 10761 10763 10765 10767 10769 10770 10772 10774 10775 10777 10778 10779 10780 10781 10783 10784
10697 10698 10699 10699 10699 10698 10697 10697 10697 10698 10701 10702 10702 10702 10702 10702 10702 10702 10702 10703 10703 10703 10702 10702 10704 10707 10708 10706 10707 10709 10711 10712 10714 10716 10716 10716 10717 10718 10719 10720 10720 10721 10722 10723 10724 10725 10727 10729 10730 10731 10732 10734 10735 10736 10737 10740 10743 10746 10747 10747 10748 10749 10750 10751 10753 10755 10756 10756 10757 10758 10760 10762 10764 10766 10768 10769 10771 10773 10774 10776 10777 10778 10779 10780 10782
10689 10690 10691 10690 10690 10690 10689 10689 10689 10691 10692 10694 10694 10694 10694 10694 10695 10695 10696 10696 10696 10696 10696 10695 10696 10698 10700 10701 10701 10703 10705 10707 10708 10709 10710 10712 10713 10714 10715 10715 10715 10716 10718 10720 10721 10722 10724 10725 10727 10728 10729 10731 10732 10733 10735 10737 10740 10743 10744 10745 10745 10746 10747 10748 10750 10752 10754 10754 10755 10756 10757 10759 10761 10763 10765 10767 10768 10770 10772 10773 10775 10776 10777 10778 10779
10680 10682 10682 10682 10682 10682 10682 10682 10682 10684 10684 10686 10687 10687 10687 10687 10688 10689 10690 10689 10689 10689 10689 10689 10689 10690 10693 10694 10696 10697 10699 10702 10703 10704 10705 10707 10709 10711 10711 10710 10711 10712 10714 10716 10718 10719 10720 10722 10723 10725 10727 10728 10729 10731 10733 10734 10736 10739 10741 10742 10742 10743 10744 10746 10748 10750 10751 10752 10753 10753 10754 10756 10758 10760 10762 10763 10765 10767 10769 10771 10772 10774 10775 10776 10777
10672 10674 10674 10674 10675 10675 10675 10674 10675 10676 10677 10678 10679 10680 10681 10681 10682 10683 10684 10683 10683 10683 10682 10682 10683 10684 10685 10688 10690 10692 10694 10696 10698 10698 10699 10702 10705 10709 10708 10706 10707 10708 10709 10712 10713 10715 10717 10719 10720 10722 10723 10725 10726 10728 10730 10731 10733 10735 10737 10739 10739 10740 10742 10744 10745 10747 10748 10749 10750 10751 10751 10752 10754 10756 10758 10760 10761 10763 10765 10767 10769 10771 10772 10773 10774
10664 10665 10666 10666 10667 10667 10667 10667 10668 10669 10669 10670 10672 10674 10675 10675 10676 10676 10677 10677 10677 10677 10677 10676 10677 10678 10679 10681 10685 10687 10689 10690 10691 10693 10694 10696 10700 10705 10706 10701 10701 10704 10705 10708 10710 10711 10713 10715 10717 10719 10720 10722 10723 10725 10727 10728 10729 10731 10733 10735 10736 10738 10739 10741 10743 10743 10745 10746 10747 10748 10748 10749 10750 10752 10754 10756 10758 10760 10762 10763 10765 10767 10769 10769 10770
10656 10657 10657 10658 10659 10660 10660 10660 10661 10661 10662 10663 10664 10666 10668 10669 10670 10670 10671 10671 10671 10672 10671 10671 10671 10672 10673 10675 10679 10682 10684 10684 10685 10687 10689 10691 10693 10698 10700 10696 10697 10701 10702 10704 10706 10708 10709 10711 10713 10715 10716 10718 10719 10721 10723 10724 10725 10726 10728 10731 10733 10735 10736 10738 10739 10740 10741 10743 10744 10745 10745 10746 10747 10748 10750 10752 10754 10756 10758 10760 10761 10763 10765 10766 10767
10648 10648 10648 10649 10651 10651 10652 10653 10654 10654 10655 10656 10658 10659 10661 10663 10664 10664 10664 10665 10665 10666 10666 10666 10667 10667 10668 10670 10673 10676 10678 10679 10680 10682 10684 10686 10688 10691 10693 10693 10696 10697 10697 10698 10701 10704 10705 10707 10709 10711 10713 10714 10716 10718 10719 10721 10722 10722 10724 10726 10729 10731 10733 10734 10735 10737 10738 10739 10740 10741 10742 10743 10744 10745 10747 10749 10751 10752 10755 10756 10758 10759 10761 10762 10763
10641 10640 10640 10640 10642 10643 10644 10646 10647 10648 10648 10649 10651 10653 10655 10656 10657 10658 10659 10659 10659 10660 10660 10661 10662 10662 10663 10665 10667 10670 10673 10674 10676 10677 10679 10680 10683 10685 10687 10690 10691 10690 10691 10694 10697 10700 10702 10703 10704 10706 10708 10710 10712 10714 10716 10717 10718 10719 10721 10722 10724 10727 10729 10730 10731 10733 10734 10735 10736 10737 10738 10739 10740 10742 10743 10745 10747 10749 10751 10753 10754 10756 10757 10758 10760
10634 10633 10633 10633 10634 10635 10637 10638 10640 10641 10642 10643 10644 10646 10648 10650 10651 10652 10653 10654 10654 10655 10655 10656 10657 10657 10659 10660 10662 10665 10667 10670 10672 10673 10674 10675 10678 10679 10680 10683 10684 10685 10689 10692 10695 10698 10700 10700 10701 10703 10704 10706 10708 10710 10712 10714 10716 10717 10718 10718 10720 10722 10724 10727 10728 10729 10730 10731 10732 10734 10735 10736 10737 10738 10739 10741 10743 10745 10747 10749 10751 10752 10754 10755 10757
10628 10627 10628 10627 10627 10629 10631 10632 10633 10634 10635 10636 10638 10639 10641 10643 10645 10646 10647 10648 10649 10650 10650 10651 10652 10653 10654 10656 10657 10660 10662 10665 10667 10669 10670 10672 10673 10673 10674 10678 10680 10683 10686 10689 10692 10694 10696 10698 10699 10700 10701 10702 10703 10705 10708 10710 10712 10713 10714 10716 10717 10718 10720 10722 10725 10726 10726 10727 10728 10730 10732 10733 10733 10734 10735 10737 10738 10741 10743 10745 10747 10749 10750 10752 10754
10621 10621 10622 10622 10623 10624 10626 10628 10629 10630 10631 10631 10632 10634 10635 10637 10639 10640 10641 10642 10644 10645 10646 10647 10648 10649 10650 10651 10653 10655 10657 10660 10663 10665 10666 10667 10667 10666 10668 10673 10676 10679 10682 10685 10688 10690 10692 10693 10694 10696 10697 10698 10699 10702 10705 10707 10709 10710 10711 10713 10713 10714 10716 10718 10720 10722 10723 10723 10725 10727 10728 10729 10730 10731 10732 10733 10734 10736 10739 10741 10743 10745 10747 10748 10750
10615 10616 10616 10618 10619 10619 10621 10623 10625 10626 10626 10627 10628 10629 10630 10632 10634 10635 10637 10638 10639 10640 10641 10643 10644 10645 10646 10647 10649 10650 10652 10655 10658 10660 10660 10661 10661 10662 10664 10668 10671 10674 10679 10682 10685 10687 10687 10686 10688 10692 10695 10696 10697 10699 10702 10704 10705 10706 10708 10709 10710 10711 10712 10714 10716 10718 10719 10720 10721 10723 10725 10726 10727 10728 10729 10730 10731 10732 10734 10737 10739 10740 10742 10744 10746
10610 10611 10612 10613 10615 10616 10617 10618 10620 10621 10622 10622 10623 10624 10626 10627 10629 10631 10633 10634 10634 10635 10637 10638 10640 10641 10642 10643 10645 10646 10648 10650 10652 10654 10655 10656 10657 10658 10660 10663 10666 10670 10675 10678 10679 10680 10680 10681 10683 10688 10690 10691 10693 10695 10697 10698 10700 10702 10704 10705 10706 10707 10708 10710 10712 10714 10715 10716 10717 10719 10721 10723 10723 10724 10725 10726 10727 10729 10730 10733 10735 10736 10738 10740 10741
10605 10607 10608 10610 10611 10613 10613 10614 10615 10616 10617 10618 10619 10620 10622 10623 10625 10627 10629 10630 10630 10632 10633 10634 10636 10637 10638 10640 10641 10642 10643 10645 10647 10649 10650 10651 10652 10654 10656 10659 10662 10665 10669 10671 10672 10673 10675 10676 10678 10681 10684 10685 10687 10690 10692 10693 10695 10697 10700 10701 10702 10704 10705 10706 10707 10710 10711 10712 10713 10715 10717 10719 10720 10721 10722 10723 10724 10725 10727 10729 10730 10732 10734 10735 10737
10600 10603 10605 10606 10608 10609 10609 10610 10611 10612 10613 10614 10615 10616 10618 10620 10621 10623 10624 10625 10627 10628 10629 10630 10632 10633 10634 10636 10637 10638 10639 10641 10643 10645 10646 10646 10648 10650 10652 10654 10656 10660 10662 10663 10665 10668 10670 10672 10673 10675 10677 10679 10682 10684 10686 10688 10689 10691 10695 10697 10698 10700 10701 10702 10703 10705 10708 10709 10710 10710 10712 10715 10716 10717 10718 10719 10720 10721 10723 10725 10726 10728 10729 10731 10733
10596 10600 10602 10603 10604 10605 10606 10606 10608 10609 10609 10610 10611 10613 10614 10616 10617 10618 10619 10621 10623 10624 10626 10627 10628 10629 10631 10632 10633 10634 10636 10637 10639 10640 10641 10642 10643 10645 10647 10649 10651 10654 10656 10658 10660 10662 10664 10667 10668 10669 10671 10673 10676 10678 10681 10683 10684 10686 10690 10692 10693 10695 10697 10698 10699 10701 10704 10706 10706 10706 10707 10710 10712 10713 10714 10715 10716 10718 10719 10721 10722 10724 10725 10727 10728
10594 10597 10599 10600 10601 10602 10603 10604 10605 10605 10605 10607 10608 10609 10611 10612 10613 10614 10615 10616 10618 10620 10622 10623 10624 10625 10627 10628 10630 10631 10632 10633 10634 10636 10637 10638 10639 10641 10643 10645 10646 10649 10651 10653 10654 10655 10658 10661 10662 10663 10665 10667 10670 10672 10675 10677 10679 10682 10684 10687 10689 10691 10692 10694 10696 10698 10700 10701 10702 10703 10704 10705 10707 10709 10710 10711 10713 10714 10716 10717 10718 10720 10721 10722 10724
10591 10594 10595 10597 10598 10599 10600 10601 10602 10602 10602 10604 10605 10606 10607 10609 10609 10610 10611 10612 10614 10616 10617 10619 10620 10622 10623 10624 10626 10627 10628 10629 10630 10632 10633 10634 10635 10637 10639 10641 10642 10644 10646 10648 10649 10650 10654 10656 10656 10658 10660 10662 10665 10667 10670 10672 10675 10678 10679 10682 10684 10686 10687 10689 10691 10693 10695 10696 10698 10699 10701 10702 10703 10704 10706 10708 10709 10711 10712 10713 10715 10716 10717 10718 10720
10589 10591 10592 10593 10594 10596 10597 10598 10599 10599 10599 10600 10601 10602 10604 10605 10606 10606 10607 10608 10610 10611 10613 10615 10616 10618 10619 10620 10622 10623 10624 10626 10627 10628 10629 10630 10631 10633 10635 10637 10639 10640 10641 10643 10644 10646 10649 10651 10652 10655 10657 10659 10661 10663 10665 10667 10670 10673 10675 10677 10679 10680 10682 10683 10686 10688 10690 10692 10693 10695 10697 10699 10700 10701 10702 10704 10705 10707 10708 10710 10711 10712 10713 10715 10716
10585 10588 10589 10590 10591 10592 10594 10594 10595 10595 10595 10596 10597 10599 10601 10602 10603 10603 10603 10604 10606 10607 10608 10610 10612 10613 10615 10616 10618 10619 10620 10622 10623 10624 10625 10626 10627 10629 10631 10633 10635 10637 10638 10639 10640 10642 10644 10646 10649 10652 10654 10656 10657 10658 10661 10663 10666 10669 10670 10672 10674 10675 10677 10678 10681 10684 10686 10688 10689 10691 10693 10695 10696 10697 10698 10699 10701 10703 10704 10706 10707 10708 10709 10711 10712
10582 10584 10585 10587 10588 10589 10590 10590 10591 10591 10590 10591 10593 10595 10597 10598 10599 10599 10599 10600 10601 10602 10604 10605 10607 10608 10610 10612 10613 10615 10616 10618 10619 10621 10622 10622 10624 10625 10627 10629 10631 10633 10634 10636 10637 10638 10639 10642 10645 10648 10650 10652 10654 10655 10657 10659 10662 10664 10666 10668 10669 10670 10672 10674 10677 10680 10683 10684 10685 10686 10688 10690 10692 10693 10694 10695 10697 10698 10700 10701 10703 10704 10705 10706 10708
10577 10579 10581 10582 10583 10584 10585 10586 10586 10586 10585 10586 10588 10590 10592 10593 10594 10594 10594 10596 10597 10598 10599 10600 10601 10603 10604 10606 10608 10610 10612 10614 10615 10617 10618 10619 10620 10621 10623 10625 10627 10629 10631 10632 10634 10635 10636 10638 10640 10643 10646 10648 10650 10651 10652 10654 10657 10659 10661 10663 10664 10666 10668 10670 10673 10676 10678 10679 10680 10681 10684 10685 10687 10688 10689 10690 10692 10694 10695 10696 10698 10699 10700 10702 10703
10571 10574 10575 10577 10578 10578 10579 10580 10581 10581 10580 10580 10582 10584 10586 10588 10589 10589 10590 10591 10592 10594 10595 10595 10596 10597 10599 10601 10603 10605 10607 10609 10611 10612 10613 10614 10616 10617 10619 10621 10623 10624 10626 10628 10630 10631 10632 10634 10636 10638 10641 10643 10645 10646 10648 10649 10652 10654 10656 10658 10660 10662 10663 10666 10668 10671 10672 10674 10675 10677 10679 10680 10681 10682 10684 10686 10687 10689 10690 10691 10693 10694 10696 10697 10699
10565 10567 10569 10571 10571 10572 10573 10574 10575 10575 10575 10575 10577 10578 10580 10582 10583 10584 10585 10586 10588 10589 10590 10591 10591 10592 10593 10595 10597 10599 10602 10604 10605 10607 10609 10610 10612 10613 10615 10617 10619 10620 10622 10624 10626 10627 10629 10630 10632 10634 10636 10638 10640 10642 10643 10644 10647 10649 10651 10653 10655 10657 10659 10661 10663 10665 10667 10669 10670 10672 10674 10676 10677 10677 10679 10681 10682 10683 10684 10685 10687 10688 10690 10692 10694